This demonstration page uses our WeatherBlox Daily Observations layout. Learn more.

Left ArrowRight Arrow

39.29038, -76.61219

Hourly Observations for August 21, 2020

Temp ( °F °C ) Dew Point ( °F °C ) Humidity (%) Winds ( mph kmh ) Pressure ( in mb ) Visibility ( mi km ) Precip ( " mm )
12:54 am 00:54 Mostly Cloudy 69 20.6 64 17.8 84 84 Calm 30.01 1016 10 16 0.00 0.00
1:54 am 01:54 Mostly Cloudy 67 19.4 63 17.2 87 87 Calm 30.01 1016 10 16 0.00 0.00
2:54 am 02:54 Mostly Cloudy 69 20.6 64 17.8 84 84 SSW 3 6 30.00 1016 10 16 0.00 0.00
3:54 am 03:54 Partly Cloudy 68 20 63 17.2 84 84 SW 3 6 29.99 1016 10 16 0.00 0.00
4:54 am 04:54 Partly Cloudy 66 18.9 63 17.2 90 90 Calm 29.99 1016 10 16 0.00 0.00
5:54 am 05:54 Mostly Cloudy 65 18.3 62 16.7 90 90 Calm 29.99 1016 10 16 0.00 0.00
6:54 am 06:54 Mostly Cloudy 65 18.3 62 16.7 90 90 Calm 30.00 1016 10 16 0.00 0.00
7:54 am 07:54 Mostly Cloudy 71 21.7 65 18.3 81 81 Calm 30.01 1016 10 16 0.00 0.00
8:54 am 08:54 Mostly Cloudy 75 23.9 68 20 79 79 W 3 6 30.01 1016 10 16 0.00 0.00
9:20 am 09:20 Mostly Sunny 76 24.4 68 20 77 77 SW 6 9 30.00 1016 10 16 0.00 0.00
9:54 am 09:54 Mostly Cloudy 78 25.6 69 20.6 74 74 SSW 6 9 30.01 1016 10 16 0.00 0.00
10:54 am 10:54 Mostly Cloudy 79 26.1 68 20 69 69 VRB 5 7 30.00 1016 10 16 0.00 0.00
11:54 am 11:54 Mostly Cloudy 80 26.7 69 20.6 69 69 SSW 7 11 30.00 1016 10 16 0.00 0.00
12:54 pm 12:54 Mostly Cloudy 82 27.8 69 20.6 65 65 SW 6 9 29.98 1015 10 16 0.00 0.00
1:54 pm 13:54 Mostly Cloudy 85 29.4 68 20 57 57 SSW 6 9 29.96 1015 10 16 0.00 0.00
2:54 pm 14:54 Mostly Cloudy 85 29.4 68 20 57 57 SW 7 11 29.94 1014 10 16 0.00 0.00
3:54 pm 15:54 Mostly Cloudy 86 30 68 20 55 55 VRB 5 7 29.92 1013 10 16 0.00 0.00
4:54 pm 16:54 Mostly Cloudy 85 29.4 68 20 57 57 SSW 6 9 29.92 1013 10 16 0.00 0.00
5:54 pm 17:54 Mostly Cloudy 84 28.9 68 20 59 59 S 6 9 29.91 1013 10 16 0.00 0.00
6:54 pm 18:54 Cloudy 81 27.2 69 20.6 67 67 S 6 9 29.91 1013 10 16 0.00 0.00
7:54 pm 19:54 Cloudy 79 26.1 70 21.1 74 74 S 3 6 29.92 1013 10 16 0.00 0.00
8:54 pm 20:54 Cloudy 78 25.6 67 19.4 69 69 SSW 5 7 29.93 1014 10 16 0.00 0.00
9:54 pm 21:54 Cloudy 77 25 68 20 74 74 SSW 5 7 29.95 1014 10 16 0.00 0.00
10:54 pm 22:54 Cloudy 77 25 69 20.6 77 77 VRB 5 7 29.95 1014 10 16 0.00 0.00
11:54 pm 23:54 Cloudy 76 24.4 69 20.6 79 79 SSW 3 6 29.95 1014 10 16 0.00 0.00

Powered by AerisWeather